カタログに戻る

FENGYUN 1C DEB

運用中SSO
NORAD 32464·DEBRIS·🇨🇳 China

打ち上げ May 10, 1999 から Taiyuan Satellite Launch Center

Loading…

次のパス (今後24時間)

TLE

経年Source: Space-Track

元期: Sep 9, 2026, 06:33 UTC

1 32464U 99025DCC 26252.27323448  .00012897  00000-0  91931-3 0  9997
2 32464  97.3435 265.4494 0098014  40.9981 319.8559 15.00827163648404

AllMySatでFENGYUN 1C DEBをリアルタイム追跡

Download on the App Store